Location: Allens Landing
(37.8284°N, 89.7284°W)
Time: 11:02:53
(UTC+00:00)

ARIANE 6 FM1 Upper Stage - Visible Passes

Search period start: 10 October 2024 00:00
Search period end: 20 October 2024 00:00
Orbit: 563 x 594 km, 62.0° (Epoch: 09 October)

Date Brightness Start Highest point End Pass type
(mag) Time Alt. Az. Time Alt. Az. Time Alt. Az.
17 Oct 5.0 01:05:38 10° N 01:06:41 13° NNE 01:06:41 13° NNE visible
18 Oct 4.7 01:09:17 10° N 01:11:00 18° N 01:11:00 18° N visible
19 Oct 4.3 01:13:10 10° NNW 01:15:25 25° N 01:15:25 25° N visible
